Weather History for Indianapolis, IN

Change the Weather History Date:

Monday, December 2, 2013

  Actual Average Record
Temperature  
Mean Temperature 41 °F 36 °F  
Max Temperature 48 °F 44 °F 74 °F (1982)
Min Temperature 34 °F 29 °F -3 °F (1886)
Degree Days  
Heating Degree Days 24 29  
Month to date heating degree days 47 57  
Since 1 July heating degree days 1191 1099  
Cooling Degree Days 0 0  
Month to date cooling degree days 0 0  
Year to date cooling degree days 1160 1066  
Moisture  
Dew Point 35 °F    
Average Humidity 75    
Maximum Humidity 89    
Minimum Humidity 61    
Precipitation  
Precipitation 0.02 in 0.11 in 1.84 in (1967)
Month to date precipitation 0.02 0.21  
Year to date precipitation 41.50 39.48  
Snow  
Snow 0.00 in 0.10 in 2.00 in (1942)
Month to date snowfall 0.0 0.2  
Since 1 July snowfall 0.1 1.3  
Snow Depth 0.00 in    
Sea Level Pressure  
Sea Level Pressure 29.85 in    
Wind  
Wind Speed 7 mph (ENE)    
Max Wind Speed 12 mph    
Max Gust Speed 14 mph    
Visibility 5 miles    
Events Rain    
T = Trace of Precipitation, MM = Missing Value Source: NWS Daily Summary

Daily Weather History Graph

Daily Weather History Graph

Search for Another Location

Airport:

Trip Planner

Search our weather history database for the weather conditions in past years. The results will help you decide how hot, cold, wet, or windy it might be!

Date:

Astronomy

Dec. 02, 2013 Rise Set
Actual Time 7:48 AM EST 5:21 PM EST
Civil Twilight 7:18 AM EST 5:51 PM EST
Nautical Twilight 6:44 AM EST 6:24 PM EST
Astronomical Twilight 6:12 AM EST 6:57 PM EST
Moon 7:12 AM EST (12/2) 5:23 PM EST (12/2)
Length of Visible Light 10h 32m
Length of Day
9h 32m
Waning Crescent, 0% of the Moon is Illuminated
Dec 2
Waning Crescent
Dec 2
New
Dec 9
First Quarter
Dec 17
Full
Dec 25
Last Quarter

Hourly Weather History & Observations

Time (EST) Temp. Windchill Dew Point Humidity Pressure Visibility Wind Dir Wind Speed Gust Speed Precip Events Conditions
12:54 AM 37.9 °F 34.4 °F 32.0 °F 79% 29.95 in 6.0 mi ENE 4.6 mph - N/A   Haze
1:54 AM 37.0 °F 31.6 °F 32.0 °F 82% 29.93 in 5.0 mi NE 6.9 mph - N/A   Haze
2:54 AM 37.0 °F 31.6 °F 32.0 °F 82% 29.93 in 6.0 mi NNE 6.9 mph - N/A   Haze
3:54 AM 36.0 °F 31.1 °F 32.0 °F 86% 29.91 in 5.0 mi NE 5.8 mph - N/A   Overcast
4:54 AM 36.0 °F 30.3 °F 30.9 °F 82% 29.91 in 5.0 mi NE 6.9 mph - N/A   Haze
5:54 AM 37.0 °F 31.0 °F 30.9 °F 79% 29.91 in 6.0 mi NE 8.1 mph - N/A   Haze
6:54 AM 34.0 °F 28.8 °F 30.0 °F 85% 29.90 in 4.0 mi NE 5.8 mph - N/A   Mostly Cloudy
7:54 AM 36.0 °F 30.3 °F 30.9 °F 82% 29.89 in 6.0 mi NE 6.9 mph - N/A   Haze
8:54 AM 37.9 °F 33.5 °F 32.0 °F 79% 29.88 in 4.0 mi ENE 5.8 mph - N/A   Haze
9:54 AM 39.9 °F 37.8 °F 32.0 °F 73% 29.89 in 4.0 mi East 3.5 mph - N/A   Haze
10:54 AM 41.0 °F 35.2 °F 33.1 °F 73% 29.88 in 4.0 mi East 9.2 mph - N/A   Haze
11:54 AM 43.0 °F 37.7 °F 34.0 °F 71% 29.86 in 5.0 mi ESE 9.2 mph - N/A   Haze
12:54 PM 45.0 °F 41.8 °F 35.1 °F 68% 29.83 in 6.0 mi East 5.8 mph - N/A   Haze
1:54 PM 46.9 °F - 36.0 °F 66% 29.81 in 7.0 mi East 4.6 mph - N/A   Mostly Cloudy
2:54 PM 48.0 °F - 36.0 °F 63% 29.77 in 7.0 mi East 10.4 mph - N/A   Overcast
3:54 PM 48.0 °F - 37.0 °F 66% 29.77 in 7.0 mi East 5.8 mph - N/A   Overcast
4:54 PM 46.9 °F - 37.9 °F 71% 29.79 in 7.0 mi East 4.6 mph - 0.00 in Rain Light Rain
5:54 PM 46.0 °F 43.1 °F 37.9 °F 73% 29.79 in 7.0 mi East 5.8 mph - 0.00 in   Overcast
6:54 PM 46.0 °F 42.5 °F 39.0 °F 76% 29.79 in 7.0 mi ENE 6.9 mph - 0.00 in Rain Light Rain
7:54 PM 44.1 °F 40.1 °F 39.0 °F 82% 29.80 in 6.0 mi East 6.9 mph - 0.01 in Rain Light Rain
8:54 PM 43.0 °F 38.2 °F 39.0 °F 86% 29.79 in 5.0 mi ENE 8.1 mph - 0.01 in   Overcast
9:54 PM 43.0 °F 38.2 °F 39.0 °F 86% 29.79 in 4.0 mi East 8.1 mph - N/A   Overcast
10:54 PM 42.1 °F 37.7 °F 37.9 °F 85% 29.79 in 4.0 mi ESE 6.9 mph - N/A   Overcast
11:54 PM 42.1 °F 37.7 °F 37.9 °F 85% 29.79 in 4.0 mi East 6.9 mph - N/A   Overcast